Tracking 19909 objects as of 22-Oct-2019
HD Live streaming from Space Station
objects crossing your sky now

IRIDIUM 33 DEB

Track IRIDIUM 33 DEB now!
10-day predictions


NORAD ID: 34693
Int'l Code: 1997-051KQ
Perigee: 701.8 km
Apogee: 736.8 km
Inclination: 86.3 °
Period: 99.0 minutes
Semi major axis: 7090 km
RCS: 0.01 m2 (small)
Launch date: September 14, 1997
Source: United States (US)
Launch site: TYURATAM MISSILE AND SPACE COMPLEX (TTMTR)

Note: This is SATELLITE DEBRIS
aabbcc
Your satellite tracking list
Your tracking list is empty




NASA's NSSDC Master Catalog

Two Line Element Set (TLE):
1 34693U 97051KQ  19293.28553917 +.00000750 +00000-0 +17175-3 0  9997
2 34693 086.3417 230.7456 0024721 175.0191 339.4188 14.54144463559925
Source of the keplerian elements: AFSPC